DW9249 Weather Reports


time (UTC)temp
F
wind
direction
speed
knots
gust
knots
rain 1hr
in
rain 24hr
in
rain mn
in
humidity
%
barometer
mb
20260506201335 64 194 0.9 7.0 0.00 0.06 0.06 89 997.8
20260506200835 63 203 0.9 5.2 0.00 0.06 0.06 90 997.9
20260506200341 63 202 0.9 5.2 0.00 0.06 0.06 90 997.9
20260506195235 63 210 0.9 5.2 0.00 0.06 0.06 90 998.1
20260506194740 63 202 0.9 6.1 0.00 0.06 0.06 90 998.2
20260506194235 63 204 0.9 6.1 0.00 0.06 0.06 90 998.2
20260506193111 63 187 1.7 6.1 0.00 0.06 0.06 90 998.4
20260506192612 63 165 2.6 7.8 0.00 0.06 0.06 89 998.5
20260506192119 63 219 1.7 7.8 0.00 0.06 0.06 89 998.6
20260506191626 63 242 1.7 7.8 0.00 0.06 0.06 89 998.6
20260506191124 63 168 1.7 7.8 0.00 0.06 0.06 88 998.6
20260506190610 64 183 0.9 5.2 0.00 0.06 0.06 88 998.6
20260506190118 64 215 0.0 1.7 0.00 0.06 0.06 89 998.6
20260506184942 64 196 0.0 3.5 0.00 0.06 0.06 88 998.6
20260506183758 64 238 0.0 3.5 0.00 0.06 0.06 88 998.7
20260506183254 64 215 0.9 0.0 0.00 0.06 0.06 88 998.7
20260506182805 64 223 0.9 4.3 0.00 0.06 0.06 87 998.7
20260506182309 64 200 0.0 4.3 0.00 0.06 0.06 87 998.7
20260506181756 64 244 0.0 4.3 0.00 0.06 0.06 87 998.7
20260506181254 64 190 0.0 2.6 0.00 0.06 0.06 86 998.7
20260506180748 64 188 0.0 4.3 0.00 0.06 0.06 86 998.8
20260506180234 65 190 0.0 0.0 0.00 0.06 0.06 86 998.9
20260506175722 64 190 0.0 4.3 0.00 0.06 0.06 86 999.0
20260506175218 65 184 0.0 0.0 0.00 0.06 0.06 86 999.2
20260506174718 65 182 0.0 0.0 0.00 0.06 0.06 86 999.2
20260506174212 65 161 0.0 7.0 0.00 0.06 0.06 85 999.1
20260506173706 65 215 0.9 5.2 0.00 0.06 0.06 85 999.1
20260506173157 65 182 0.0 5.2 0.00 0.06 0.06 86 999.2
20260506172020 65 173 0.0 5.2 0.06 0.06 0.06 87 999.1
20260506170903 64 163 0.0 0.0 0.00 0.04 0.05 87 999.0
20260506170346 64 161 0.0 7.0 0.00 0.04 0.04 86 999.0
20260506165851 64 197 0.0 0.9 0.00 0.04 0.04 86 999.0
20260506165354 65 197 0.0 0.9 0.00 0.04 0.04 86 999.3
20260506164233 65 208 0.0 0.9 0.05 0.04 0.04 85 999.7
20260506163121 65 208 0.0 0.0 0.06 0.03 0.04 84 1000.1
20260506162626 65 209 0.0 0.0 0.08 0.03 0.03 83 1000.3
20260506162120 65 192 0.0 0.0 0.08 0.02 0.03 83 1000.2
20260506161610 66 180 0.0 2.6 0.08 0.02 0.02 82 1000.3
20260506161104 66 202 0.0 0.0 0.00 0.01 0.01 80 1000.3
20260506160606 66 202 0.0 0.0 0.00 0.01 0.01 79 1000.4
20260506160109 66 204 0.9 5.2 0.00 0.00 0.00 76 1000.5
20260506155556 67 228 1.7 7.8 0.00 0.00 0.00 75 1000.4
20260506155052 67 182 1.7 7.8 0.00 0.00 0.00 74 1000.5
20260506154537 67 209 2.6 9.6 0.00 0.00 0.00 72 1000.4
20260506154037 68 160 3.5 9.6 0.00 0.00 0.00 70 1000.4
20260506153538 68 153 3.5 9.6 0.00 0.00 0.00 70 1000.4
20260506153027 69 209 3.5 9.6 0.00 0.00 0.00 69 1000.5
20260506152523 69 194 1.7 7.8 0.00 0.00 0.00 69 1000.4
20260506151404 69 212 1.7 11.3 0.00 0.00 0.00 68 1000.3
20260506150909 69 171 1.7 11.3 0.00 0.00 0.00 68 1000.2
20260506150354 69 180 2.6 11.3 0.00 0.00 0.00 67 1000.3
20260506145853 70 146 2.6 11.3 0.00 0.00 0.00 67 1000.4
20260506144708 70 188 4.3 11.3 0.00 0.00 0.00 65 1000.5
20260506143529 70 176 2.6 8.7 0.00 0.00 0.00 65 1000.4
20260506143035 70 201 2.6 8.7 0.00 0.00 0.00 66 1000.6
20260506142521 70 167 2.6 7.8 0.00 0.00 0.00 66 1000.6
20260506142006 69 190 1.7 7.8 0.00 0.00 0.00 67 1000.5
20260506141503 69 192 2.6 7.8 0.00 0.00 0.00 67 1000.4
20260506140343 69 311 1.7 7.8 0.00 0.00 0.00 67 1000.5
20260506135840 69 169 1.7 7.8 0.00 0.00 0.00 67 1000.4
20260506135328 69 185 1.7 7.8 0.00 0.00 0.00 67 1000.6
20260506134833 69 148 1.7 7.0 0.00 0.00 0.00 67 1000.5
20260506133707 69 158 1.7 7.0 0.00 0.00 0.00 67 1000.7
20260506133151 69 226 2.6 9.6 0.00 0.00 0.00 67 1000.7
20260506132633 69 182 3.5 9.6 0.00 0.00 0.00 67 1000.7
20260506132140 69 220 2.6 9.6 0.00 0.00 0.00 68 1000.8
20260506131639 68 223 3.5 9.6 0.00 0.00 0.00 68 1000.7
20260506131136 68 192 2.6 8.7 0.00 0.00 0.00 68 1000.7
20260506130645 68 157 1.7 10.4 0.00 0.00 0.00 69 1000.8
20260506130152 68 185 1.7 10.4 0.00 0.00 0.00 69 1000.8
20260506125638 68 180 1.7 10.4 0.00 0.00 0.00 68 1000.6
20260506125140 68 161 2.6 10.4 0.00 0.00 0.00 69 1000.4
20260506124626 68 210 2.6 8.7 0.00 0.00 0.00 69 1000.5
20260506124117 68 286 1.7 7.0 0.00 0.00 0.00 69 1000.3
20260506123614 68 153 1.7 5.2 0.00 0.00 0.00 70 1000.2
20260506123059 67 190 1.7 8.7 0.00 0.00 0.00 70 1000.3
20260506122600 67 173 0.9 8.7 0.00 0.00 0.00 71 1000.4
20260506122057 67 154 0.9 8.7 0.00 0.00 0.00 72 1000.4
20260506121541 67 182 1.7 8.7 0.00 0.00 0.00 72 1000.6
20260506121033 67 159 1.7 7.8 0.00 0.00 0.00 72 1000.6
20260506115858 67 329 1.7 7.8 0.00 0.00 0.00 72 1000.8
20260506115348 67 264 2.6 7.8 0.00 0.00 0.00 72 1000.8
20260506114852 67 242 2.6 7.8 0.00 0.00 0.00 72 1001.0
20260506114359 67 165 2.6 6.1 0.00 0.00 0.00 72 1001.0
20260506113904 67 167 1.7 6.1 0.00 0.00 0.00 72 1000.9
20260506112740 66 241 1.7 0.0 0.00 0.00 0.00 74 1000.8
20260506112241 66 254 1.7 8.7 0.00 0.00 0.00 74 1000.8
20260506111722 66 171 0.9 8.7 0.00 0.00 0.00 74 1000.7
20260506111231 66 201 1.7 1.7 0.00 0.00 0.00 74 1000.7
20260506110723 66 208 3.5 9.6 0.00 0.00 0.00 74 1000.7
20260506110208 66 206 1.7 9.6 0.00 0.00 0.00 74 1000.6
20260506105718 65 177 0.9 7.8 0.00 0.00 0.00 75 1000.5
20260506105219 65 159 1.7 7.8 0.00 0.00 0.00 75 1000.6
20260506104702 65 172 0.9 3.5 0.00 0.00 0.00 75 1000.5
20260506104153 65 226 0.9 5.2 0.00 0.00 0.00 75 1000.6
20260506103658 65 198 0.9 5.2 0.00 0.00 0.00 75 1000.5
20260506103158 65 206 0.9 7.8 0.00 0.00 0.00 75 1000.6
20260506102653 65 210 1.7 7.8 0.00 0.00 0.00 75 1000.6
20260506102148 65 177 2.6 7.8 0.00 0.00 0.00 75 1000.6
20260506101650 65 239 1.7 7.8 0.00 0.00 0.00 75 1000.5
20260506101153 65 194 1.7 7.8 0.00 0.00 0.00 75 1000.6
20260506100639 65 223 0.9 7.8 0.00 0.00 0.00 75 1000.4
20260506095528 65 204 0.9 4.3 0.00 0.00 0.00 75 1000.3
20260506095020 65 210 0.0 4.3 0.00 0.00 0.00 75 1000.3
20260506094526 65 252 0.0 4.3 0.00 0.00 0.00 75 1000.3
20260506094017 65 189 0.9 0.0 0.00 0.00 0.00 75 1000.3
20260506093500 65 227 1.7 7.0 0.00 0.00 0.00 75 1000.4
20260506093008 65 182 0.9 7.0 0.00 0.00 0.00 75 1000.4
20260506092503 65 203 0.0 3.5 0.00 0.00 0.00 75 1000.4
20260506092004 65 173 0.9 5.2 0.00 0.00 0.00 75 1000.4
20260506091500 65 194 0.9 5.2 0.00 0.00 0.00 75 1000.5
20260506090941 65 213 0.9 0.0 0.00 0.00 0.00 75 1000.5
20260506090441 65 192 0.9 6.1 0.00 0.00 0.00 75 1000.5
20260506085938 65 178 0.9 5.2 0.00 0.00 0.00 75 1000.5
20260506085427 65 152 0.0 5.2 0.00 0.00 0.00 75 1000.5
20260506084933 65 184 0.0 1.7 0.00 0.00 0.00 75 1000.6
20260506083808 66 192 0.0 3.5 0.00 0.00 0.00 75 1000.7
20260506083303 66 200 0.0 4.3 0.00 0.00 0.00 74 1000.6
20260506082749 66 91 0.0 3.5 0.00 0.00 0.00 74 1000.6
20260506082252 66 56 0.0 2.6 0.00 0.00 0.00 74 1000.7
20260506081759 66 186 0.0 0.0 0.00 0.00 0.00 74 1000.7
20260506080646 66 205 0.9 6.1 0.00 0.00 0.00 73 1000.8
20260506080154 66 207 0.0 5.2 0.00 0.00 0.00 73 1000.7
20260506073113 67 190 0.0 5.2 0.00 0.00 0.00 72 1000.7
20260506072621 67 225 0.0 5.2 0.00 0.00 0.00 72 1000.7
20260506071446 67 198 0.0 4.3 0.00 0.00 0.00 71 1000.7
20260506070952 67 194 0.0 5.2 0.00 0.00 0.00 71 1000.8
20260506070502 67 201 0.9 5.2 0.00 0.00 0.00 70 1000.8
20260506061425 68 132 0.9 7.0 0.00 0.00 0.00 67 1001.0
20260506060919 68 178 0.9 7.0 0.00 0.00 0.00 67 1001.0
20260506060423 68 234 0.9 7.0 0.00 0.00 0.00 67 1001.0
20260506051004 69 197 0.9 5.2 0.00 0.00 0.00 64 1001.3
20260506050453 69 168 0.0 4.3 0.00 0.00 0.00 64 1001.4
20260506044923 69 170 0.0 2.6 0.00 0.00 0.00 63 1001.5
20260506043738 69 215 0.0 7.0 0.00 0.00 0.00 62 1001.5
20260506043222 69 234 0.0 6.1 0.00 0.00 0.00 62 1001.5
20260506042721 69 224 0.9 6.1 0.00 0.00 0.00 62 1001.5
20260506041559 69 194 1.7 6.1 0.00 0.00 0.00 61 1001.5
20260506041050 69 190 0.9 6.1 0.00 0.00 0.00 61 1001.4
20260506040554 69 287 1.7 6.1 0.00 0.00 0.00 61 1001.4
20260506040047 69 190 0.9 4.3 0.00 0.00 0.00 61 1001.5
20260506034932 69 206 0.0 4.3 0.00 0.00 0.00 60 1001.4
20260506034440 69 156 0.0 4.3 0.00 0.00 0.00 60 1001.4
20260506033934 69 261 0.0 6.1 0.00 0.00 0.00 60 1001.5
20260506033434 69 178 0.0 5.2 0.00 0.00 0.00 60 1001.4
20260506032925 69 196 0.9 5.2 0.00 0.00 0.00 60 1001.5
20260506032425 69 219 0.0 1.7 0.00 0.00 0.00 60 1001.5
20260506031917 69 151 0.0 1.7 0.00 0.00 0.00 60 1001.5
20260506031424 69 227 0.0 4.3 0.00 0.00 0.00 59 1001.5
20260506030919 70 166 0.0 0.0 0.00 0.00 0.00 59 1001.5
20260506030424 70 166 0.0 4.3 0.00 0.00 0.00 59 1001.6
20260506025920 70 198 0.0 0.0 0.00 0.00 0.00 58 1001.5
20260506025414 70 198 0.0 6.1 0.00 0.00 0.00 58 1001.4
20260506024902 71 90 0.0 3.5 0.00 0.00 0.00 58 1001.4
20260506024406 71 87 0.0 0.0 0.00 0.00 0.00 57 1001.3
20260506023855 71 87 0.0 0.0 0.00 0.00 0.00 56 1001.4
20260506023400 72 87 0.0 5.2 0.00 0.00 0.00 56 1001.4
20260506022845 72 161 0.9 5.2 0.00 0.00 0.00 55 1001.3
20260506022344 72 157 0.9 5.2 0.00 0.00 0.00 55 1001.4
20260506021834 72 151 0.9 4.3 0.00 0.00 0.00 54 1001.3
20260506020656 73 199 0.9 12.2 0.00 0.00 0.00 53 1001.2
20260506020149 73 163 1.7 12.2 0.00 0.00 0.00 52 1001.2
20260506015026 73 133 1.7 10.4 0.00 0.00 0.00 51 1001.2
20260506013247 74 152 2.6 8.7 0.00 0.00 0.00 49 1001.1
20260506012749 75 162 2.6 8.7 0.00 0.00 0.00 48 1001.0
20260506012237 75 159 1.7 8.7 0.00 0.00 0.00 46 1001.0
20260506011746 75 171 2.6 8.7 0.00 0.00 0.00 46 1000.8
20260506010612 76 142 1.7 8.7 0.00 0.00 0.00 44 1000.6
20260506010059 76 140 1.7 8.7 0.00 0.00 0.00 43 1000.6
20260506005601 76 182 0.0 5.2 0.00 0.00 0.00 43 1000.5
20260506005105 76 206 0.9 4.3 0.00 0.00 0.00 42 1000.4
20260506004602 77 165 0.9 4.3 0.00 0.00 0.00 42 1000.3
20260506004053 77 170 0.0 3.5 0.00 0.00 0.00 41 1000.2
20260506003537 77 167 0.0 0.0 0.00 0.00 0.00 41 1000.2
20260506003026 77 169 0.0 8.7 0.00 0.00 0.00 41 1000.2
20260506002511 77 243 0.9 8.7 0.00 0.00 0.00 41 1000.1
20260506001342 78 178 2.6 8.7 0.00 0.00 0.00 39 1000.0
20260506000850 78 171 0.9 7.8 0.00 0.00 0.00 39 999.9
20260506000342 78 223 1.7 7.8 0.00 0.00 0.00 39 999.9
20260505235840 78 200 1.7 7.8 0.00 0.00 0.00 39 999.9
20260505235345 78 117 0.9 7.0 0.00 0.00 0.00 38 999.9
20260505234845 79 186 0.9 7.0 0.00 0.00 0.00 37 999.8
20260505234337 79 247 1.7 12.2 0.00 0.00 0.00 36 999.7
20260505233221 80 184 2.6 12.2 0.00 0.00 0.00 35 999.6
20260505232055 80 150 1.7 7.0 0.00 0.00 0.00 34 999.5
20260505230949 80 171 0.9 7.0 0.00 0.00 0.00 33 999.3
20260505230458 80 207 0.9 7.0 0.00 0.00 0.00 34 999.2
20260505225953 80 231 1.7 7.0 0.00 0.00 0.00 33 999.2
20260505225437 80 165 0.9 7.0 0.00 0.00 0.00 33 999.1
20260505224936 80 154 1.7 7.0 0.00 0.00 0.00 33 999.0
20260505223213 81 215 3.5 13.0 0.00 0.00 0.00 31 999.0
20260505222030 81 195 3.5 13.0 0.00 0.00 0.00 30 999.1
20260505221517 81 178 3.5 9.6 0.00 0.00 0.00 29 999.1
20260505220410 81 199 1.7 7.8 0.00 0.00 0.00 29 999.1
20260505215902 81 243 1.7 8.7 0.00 0.00 0.00 29 998.9
20260505215352 82 192 2.6 8.7 0.00 0.00 0.00 30 998.9
20260505214835 82 219 2.6 13.9 0.00 0.00 0.00 29 998.7
20260505213728 82 128 4.3 13.9 0.00 0.00 0.00 29 998.5
20260505213217 83 188 3.5 13.9 0.00 0.00 0.00 29 998.6
20260505212710 84 171 4.3 13.0 0.00 0.00 0.00 27 998.5
20260505212214 84 199 4.3 18.2 0.00 0.00 0.00 28 998.7
20260505211700 84 269 3.5 18.2 0.00 0.00 0.00 29 998.4
20260505211200 84 145 4.3 18.2 0.00 0.00 0.00 28 998.5
20260505210649 84 167 4.3 18.2 0.00 0.00 0.00 30 998.5
20260505210135 84 157 3.5 13.0 0.00 0.00 0.00 30 998.4
20260505205620 84 208 4.3 13.0 0.00 0.00 0.00 30 998.5
20260505205119 84 139 6.1 13.0 0.00 0.00 0.00 30 998.4
20260505204620 84 237 6.1 16.5 0.00 0.00 0.00 30 998.5
20260505204106 84 143 5.2 16.5 0.00 0.00 0.00 32 998.6
20260505203601 84 212 5.2 16.5 0.00 0.00 0.00 31 998.4
20260505203053 84 242 5.2 16.5 0.00 0.00 0.00 30 998.5